Baton Rouge, LA

8:31 PM CDT on October 16, 2019 (GMT -0500)
Baton Rouge Metro-Ryan

Weather History for KBTR - August, 2019

Change the Weather History Date:

Friday, August 23, 2019

  Actual Average Record
Temperature  
Mean Temperature 81 °F 83 °F  
Max Temperature 86 °F 92 °F 101 °F (1921)
Min Temperature 75 °F 73 °F 60 °F (1956)
Degree Days  
Heating Degree Days 0 0  
Month to date heating degree days 0 0  
Since 1 June heating degree days 0 0  
Since 1 July heating degree days 0 0  
Cooling Degree Days 16 18  
Month to date cooling degree days 461 414  
Year to date cooling degree days 2195 2019  
Since 1 June cooling degree days 1524 1454  
Growing Degree Days 30 (Base 50)    
Moisture  
Dew Point 73 °F    
Average Humidity 80    
Maximum Humidity 94    
Minimum Humidity 65    
Precipitation  
Precipitation T in 0.19 in 2.37 in (1936)
Month to date precipitation 6.30 4.44  
Year to date precipitation 47.72 40.33  
Snow  
Snow 0.00 in - - ()
Month to date snowfall 0.0  
Since 1 June snowfall 0.0  
Since 1 July snowfall 0.0  
Snow Depth 0.00 in    
Sea Level Pressure  
Sea Level Pressure 29.98 in    
Wind  
Wind Speed 5 mph (SE)    
Max Wind Speed 15 mph    
Max Gust Speed 18 mph    
Visibility 10 miles    
Events      
T = Trace of Precipitation, MM = Missing Value Source: NWS Daily Summary

Daily Weather History Graph

Daily Weather History Graph

Search for Another Location

Airport or City:

Astronomy

Aug. 23, 2019 Rise Set
Actual Time 6:35 AM CDT 7:38 PM CDT
Civil Twilight 6:10 AM CDT 8:02 PM CDT
Nautical Twilight 5:41 AM CDT 8:32 PM CDT
Astronomical Twilight 5:11 AM CDT 9:02 PM CDT
Moon No Moon Rise 1:42 PM CDT (8/23)
Length of Visible Light 13h 51m
Length of Day
13h 02m
Waning Gibbous, 49% of the Moon is Illuminated
Aug 23
Waning Gibbous
Aug 30
New
Sep 5
First Quarter
Sep 13
Full
Sep 21
Last Quarter

Hourly Weather History & Observations

Time (CDT) Temp. Heat Index Dew Point Humidity Pressure Visibility Wind Dir Wind Speed Gust Speed Precip Events Conditions
12:53 AM 75.9 °F - 73.0 °F 91% 29.96 in 10.0 mi NE 4.6 mph - N/A   Clear
1:53 AM 75.9 °F - 73.0 °F 91% 29.96 in 10.0 mi NNE 3.5 mph - N/A   Clear
2:53 AM 75.0 °F - 73.0 °F 94% 29.96 in 10.0 mi ENE 3.5 mph - N/A   Clear
3:53 AM 75.0 °F - 73.0 °F 94% 29.95 in 10.0 mi East 3.5 mph - N/A   Clear
4:53 AM 75.0 °F - 73.0 °F 94% 29.96 in 10.0 mi Calm Calm - N/A   Clear
5:53 AM 75.0 °F - 73.0 °F 94% 29.97 in 10.0 mi ENE 3.5 mph - N/A   Clear
6:53 AM 75.9 °F - 73.9 °F 94% 29.99 in 10.0 mi Calm Calm - N/A   Scattered Clouds
7:53 AM 78.1 °F - 75.0 °F 90% 30.00 in 10.0 mi ESE 5.8 mph - 0.00 in   Clear
8:53 AM 78.1 °F - 75.0 °F 90% 30.01 in 10.0 mi East 3.5 mph - 0.00 in   Partly Cloudy
9:53 AM 81.0 °F 85.8 °F 73.0 °F 77% 30.01 in 10.0 mi SE 3.5 mph - N/A   Scattered Clouds
9:57 AM 81.0 °F 85.8 °F 73.0 °F 77% 30.01 in 10.0 mi SE 4.6 mph - N/A   Mostly Cloudy
10:06 AM 81.0 °F 85.8 °F 73.0 °F 77% 30.01 in 10.0 mi Calm Calm - N/A   Scattered Clouds
10:53 AM 82.0 °F 87.9 °F 73.9 °F 76% 30.01 in 10.0 mi Calm Calm - 0.00 in   Scattered Clouds
11:53 AM 82.0 °F 87.9 °F 73.9 °F 76% 29.99 in 10.0 mi SSE 8.1 mph - N/A   Partly Cloudy
1:13 PM 84.0 °F 89.6 °F 72.0 °F 67% 29.99 in 10.0 mi SSW 11.5 mph - N/A   Mostly Cloudy
1:53 PM 84.0 °F 90.2 °F 73.0 °F 69% 29.99 in 10.0 mi South 12.7 mph - N/A   Mostly Cloudy
2:53 PM 86.0 °F 93.0 °F 73.0 °F 65% 29.96 in 10.0 mi South 10.4 mph - 0.00 in   Mostly Cloudy
3:53 PM 84.9 °F 92.1 °F 73.9 °F 69% 29.96 in 10.0 mi South 9.2 mph - N/A   Mostly Cloudy
4:53 PM 86.0 °F 93.0 °F 73.0 °F 65% 29.97 in 10.0 mi South 10.4 mph - N/A   Mostly Cloudy
5:53 PM 82.9 °F 90.2 °F 75.0 °F 77% 29.97 in 10.0 mi SE 5.8 mph - N/A   Mostly Cloudy
6:53 PM 80.1 °F 85.1 °F 75.0 °F 85% 29.96 in 10.0 mi ENE 4.6 mph - N/A   Mostly Cloudy
7:53 PM 81.0 °F 84.9 °F 71.1 °F 72% 29.96 in 10.0 mi South 8.1 mph - N/A   Partly Cloudy
8:53 PM 79.0 °F - 72.0 °F 79% 29.97 in 10.0 mi SSE 6.9 mph - 0.00 in   Clear
9:53 PM 78.1 °F - 71.1 °F 79% 29.97 in 10.0 mi SSE 4.6 mph - N/A   Clear
10:53 PM 77.0 °F - 73.0 °F 88% 29.97 in 10.0 mi Calm Calm - N/A   Clear
11:53 PM 75.9 °F - 73.0 °F 91% 29.97 in 10.0 mi Calm Calm - N/A   Clear